[[{"header":{"parameterUnit":"m.s-1","parameterCategory":2,"la1":30.2991,"la2":30.254,"lo1":-89.0895,"lo2":-89.0444,"dx":0.0017,"dy":0.0017,"nx":28,"ny":28,"refTime":"2022-12-12T03:00:00:Z","depth":"0","parameterNumber":2,"parameterNumberName":"U-component_of_CURRENTS"},"data":[0,0,0,0,0,0,0,0,0,0,0,0,0,0,0,0,0,0,0,0,0,0,0,0,0,0,0,0,0,0,0,0,0,0,0,0,0,0,0,0,0,0,0,0,0,0,0,0,0,0,0,0,0,0,0,0,0,0,-0.2679,-0.2679,0,-0.2686,-0.2686,-0.2686,-0.2751,-0.2753,-0.2755,-0.2757,-0.2735,-0.2732,-0.273,0,0,0,0,0,0,0,0,0,0,0,0,0,-0.2526,-0.2529,-0.2679,-0.2679,-0.268,-0.2686,-0.2686,-0.2686,-0.2751,-0.2754,-0.2756,-0.2758,-0.2735,-0.2732,-0.2729,0,0,0,0,0,0,0,0,0,0,0,0,0,-0.2566,-0.2531,-0.2679,-0.2716,-0.272,-0.2686,-0.2686,-0.2686,-0.2751,-0.2754,-0.2757,-0.2759,-0.2736,-0.2733,-0.2729,-0.2646,0,0,-0.2718,-0.2716,0,0,0,0,0,0,0,0,-0.2563,-0.2571,-0.271,-0.2714,-0.2718,-0.2725,-0.2624,-0.2672,-0.275,-0.2735,-0.2757,-0.2761,-0.2729,-0.2726,-0.2715,-0.2645,-0.2644,-0.2717,-0.2715,-0.2714,-0.2713,0,0,0,0,0,0,0,-0.2561,-0.257,-0.2678,-0.2711,-0.2715,-0.2666,-0.2676,-0.2632,-0.2711,-0.2736,-0.2742,-0.2748,-0.273,-0.2719,-0.2715,-0.2644,-0.2718,-0.2714,-0.2712,-0.2711,-0.2497,-0.2493,0,0,0,0,0,0,-0.2576,-0.2568,-0.2678,-0.2678,-0.2651,-0.2667,-0.2678,-0.2716,-0.2712,-0.2716,-0.2746,-0.2751,-0.2724,-0.272,-0.2715,-0.2611,-0.2714,-0.271,-0.2708,-0.25,-0.2496,-0.2492,0,0,0,0,0,0,-0.2573,-0.2586,-0.2677,-0.2624,-0.2633,-0.2669,-0.2709,-0.2715,-0.2709,-0.2721,-0.2724,-0.2736,-0.2726,-0.272,-0.2661,-0.2611,-0.2708,-0.2705,-0.2504,-0.2499,-0.2494,-0.2406,0,0,0,0,0,0,-0.2569,-0.2586,-0.2591,-0.2627,-0.2637,-0.2645,-0.2707,-0.2713,-0.271,-0.2717,-0.2712,-0.2713,-0.2728,-0.2666,-0.2657,-0.2608,-0.2702,-0.2509,-0.2502,-0.2496,-0.2413,-0.2399,-0.2386,0,0,0,0,0,-0.2564,-0.2562,-0.2592,-0.2604,-0.2654,-0.2644,-0.2642,-0.2673,-0.2706,-0.2682,-0.2679,-0.2714,-0.2619,-0.2659,-0.265,-0.2599,-0.2512,-0.2504,-0.2496,-0.242,-0.2402,-0.2386,0,0,0,0,0,0,-0.2451,-0.257,-0.2604,-0.2627,-0.2631,-0.2657,-0.2633,-0.2658,-0.2636,-0.265,-0.2663,-0.2661,-0.2587,-0.2593,-0.2638,-0.2515,-0.2572,-0.2562,-0.2517,-0.25,-0.2486,-0.2468,-0.2699,0,0,0,0,0,-0.2442,-0.2489,-0.2558,-0.2551,-0.2571,-0.2597,-0.2591,-0.2623,-0.2621,-0.2617,-0.2608,-0.2589,-0.254,-0.2526,-0.2486,-0.2415,-0.2409,-0.2375,-0.2361,-0.235,-0.2326,-0.2264,-0.2243,-0.2466,-0.2467,-0.2467,0,0,-0.2367,-0.2452,-0.2459,-0.2531,-0.2543,-0.2542,-0.26,-0.2596,-0.2576,-0.2611,-0.2554,-0.2532,-0.2506,-0.243,-0.2399,-0.2437,-0.2282,-0.234,-0.2331,-0.2312,-0.2254,-0.2233,-0.2214,-0.2461,-0.2462,-0.2463,0,0,-0.2246,-0.2348,-0.2344,-0.2383,-0.2438,-0.2475,-0.2476,-0.2506,-0.2506,-0.245,-0.2464,-0.2399,-0.2347,-0.2308,-0.2284,-0.216,-0.2203,-0.2165,-0.2091,-0.2031,-0.2013,-0.1997,-0.1969,-0.1951,-0.2169,-0.2169,-0.2169,0,-0.2144,-0.2195,-0.2313,-0.2332,-0.2347,-0.2447,-0.2415,-0.2428,-0.242,-0.2395,-0.2423,-0.2298,-0.2275,-0.217,-0.2131,-0.2126,-0.2125,-0.2165,-0.2016,-0.1999,-0.1984,-0.1959,-0.194,-0.2164,-0.2165,-0.2165,-0.2166,0,-0.2044,-0.2083,-0.2079,-0.217,-0.2185,-0.2184,-0.2255,-0.2253,-0.2276,-0.2278,-0.2181,-0.2138,-0.2073,-0.2046,-0.2049,-0.1926,-0.197,-0.2001,-0.2066,-0.1957,-0.1937,-0.1919,-0.2157,-0.2158,-0.216,-0.2161,0,0,-0.1857,-0.1979,-0.1988,-0.2018,-0.2124,-0.2137,-0.2116,-0.2116,-0.2106,-0.208,-0.2008,-0.1902,-0.1912,-0.1881,-0.1875,-0.1813,-0.1698,-0.1864,-0.1864,-0.185,-0.1596,-0.1507,-0.148,-0.1725,-0.1721,-0.1717,-0.163,0,-0.1738,-0.1752,-0.1835,-0.1825,-0.1853,-0.1954,-0.1927,-0.1952,-0.1966,-0.1935,-0.1896,-0.1833,-0.1849,-0.1818,-0.1751,-0.1723,-0.1646,-0.1721,-0.169,-0.1689,-0.1634,-0.1453,-0.1326,-0.1226,-0.1612,-0.161,-0.1607,0,-0.1659,-0.1696,-0.166,-0.1733,-0.1745,-0.1741,-0.1779,-0.1767,-0.1773,-0.177,-0.1725,-0.1734,-0.164,-0.1671,-0.1552,-0.1616,-0.1576,-0.155,-0.1548,-0.1477,-0.1563,-0.1392,-0.1179,-0.1148,-0.1581,-0.1583,-0.1585,0,-0.1577,-0.1601,-0.1577,-0.1608,-0.1676,-0.1655,-0.168,-0.1704,-0.1704,-0.1681,-0.1675,-0.1601,-0.157,-0.1504,-0.1468,-0.1514,-0.1346,-0.1414,-0.1284,-0.1282,-0.1166,-0.1157,-0.0921,-0.1274,-0.1274,-0.1274,-0.1275,0,-0.1511,-0.1508,-0.1546,-0.1562,-0.1542,-0.1595,-0.1572,-0.1596,-0.1595,-0.1568,-0.1595,-0.1542,-0.1526,-0.1461,-0.1424,-0.1287,-0.1312,-0.1208,-0.1216,-0.1131,-0.1121,-0.1087,-0.1143,-0.1271,-0.1272,-0.1273,-0.1273,0,-0.1466,-0.1482,-0.149,-0.1516,-0.1525,-0.1527,-0.1561,-0.1561,-0.1555,-0.1518,-0.151,-0.1495,-0.1394,-0.1368,-0.1255,-0.1217,-0.1064,-0.1049,-0.0963,-0.0957,-0.0801,-0.0859,-0.0715,-0.07,-0.0881,-0.0878,-0.0875,0,-0.1444,-0.144,-0.1477,-0.1499,-0.1514,-0.1524,-0.1545,-0.1553,-0.1539,-0.1466,-0.1434,-0.1348,-0.12,-0.1033,-0.0971,-0.0852,-0.091,-0.0692,-0.0708,-0.0698,-0.0771,-0.0884,-0.0893,-0.0543,-0.0537,-0.0533,-0.053,0,-0.1417,-0.1431,-0.1464,-0.1481,-0.1506,-0.1474,-0.1472,-0.1453,-0.1419,-0.1324,-0.1122,-0.0973,-0.0866,-0.0618,-0.0541,-0.0527,-0.0659,-0.0597,-0.0586,-0.0441,-0.0546,-0.0569,-0.0748,-0.0491,-0.0495,-0.0498,-0.05,-0.0501,-0.1408,-0.1442,-0.1468,-0.146,-0.1463,-0.133,-0.1228,-0.1177,-0.1012,-0.0754,-0.0762,-0.0442,-0.0241,-0.0078,-0.0169,-0.0203,-0.0349,-0.0152,-0.0216,-0.0327,-0.0296,-0.0385,-0.0142,-0.0143,-0.0145,-0.0146,-0.0147,0,-0.1406,-0.142,-0.1435,-0.1357,-0.1227,-0.1235,-0.1108,-0.0928,-0.0617,-0.0441,-0.0142,0.0241,0.0478,0.041,0.0422,0.0298,0.0082,0.0169,0.005,0.0027,-0.0006,0.003,0.0326,0.0326,0.0326,0.0326,0.0325,0.0325,-0.1407,-0.1406,-0.1378,-0.1087,-0.1,-0.071,-0.0562,-0.033,-0.0149,0.0259,0.0495,0.0621,0.0695,0.0875,0.0755,0.0589,0.0383,0.0292,0.0178,0.0172,0.0136,0.0101,0.0129,0.044,0.044,0.0253,0.0251,0.0251]},{"header":{"parameterUnit":"m.s-1","parameterCategory":2,"la1":30.2991,"la2":30.254,"lo1":-89.0895,"lo2":-89.0444,"dx":0.0017,"dy":0.0017,"nx":28,"ny":28,"refTime":"2022-12-12T03:00:00:Z","depth":"0","parameterNumber":3,"parameterNumberName":"V-component_of_CURRENTS"},"data":[0,0,0,0,0,0,0,0,0,0,0,0,0,0,0,0,0,0,0,0,0,0,0,0,0,0,0,0,0,0,0,0,0,0,0,0,0,0,0,0,0,0,0,0,0,0,0,0,0,0,0,0,0,0,0,0,0,0,0.0101,0.0105,0,0.0397,0.0401,0.0404,0.0571,0.0572,0.0572,0.0573,0.0681,0.0683,0.0685,0,0,0,0,0,0,0,0,0,0,0,0,0,-0.0227,-0.0223,0.0101,0.0105,0.0109,0.0397,0.0401,0.0405,0.0571,0.0572,0.0573,0.0573,0.068,0.0683,0.0685,0,0,0,0,0,0,0,0,0,0,0,0,0,-0.0026,-0.0221,0.01,0.0228,0.0243,0.0396,0.0401,0.0406,0.057,0.0572,0.0573,0.0574,0.0679,0.0683,0.0686,0.0682,0,0,0.0696,0.0697,0,0,0,0,0,0,0,0,-0.0038,-0.0015,0.0206,0.022,0.0237,0.0451,0.0325,0.049,0.057,0.0443,0.0573,0.0574,0.0587,0.0598,0.065,0.0687,0.0692,0.0696,0.0698,0.0699,0.07,0,0,0,0,0,0,0,-0.0052,-0.0026,0.0216,0.021,0.0229,0.0303,0.0332,0.0358,0.0499,0.0455,0.0468,0.0505,0.0594,0.0647,0.0654,0.0694,0.0696,0.0699,0.0701,0.0702,0.0676,0.0674,0,0,0,0,0,0,-0.0089,-0.0039,0.0207,0.0225,0.0102,0.0308,0.034,0.0379,0.0504,0.0527,0.0503,0.0511,0.0641,0.065,0.0658,0.0654,0.0699,0.0702,0.0704,0.0679,0.0676,0.0673,0,0,0,0,0,0,-0.0097,-0.007,0.0195,0.0101,0.0141,0.0312,0.0354,0.0384,0.0442,0.0544,0.0562,0.0532,0.0642,0.0653,0.0669,0.0659,0.0704,0.0707,0.0682,0.0678,0.0674,0.0649,0,0,0,0,0,0,-0.0108,-0.0075,-0.0074,0.0099,0.0145,0.0282,0.0355,0.0389,0.0464,0.0477,0.0573,0.0586,0.0644,0.0664,0.0672,0.0664,0.0709,0.0685,0.068,0.0675,0.0653,0.0644,0.0637,0,0,0,0,0,-0.0121,-0.0113,-0.0076,-0.0046,0.0145,0.0282,0.0312,0.0436,0.0463,0.049,0.0538,0.0583,0.0638,0.0665,0.0675,0.0668,0.0688,0.0681,0.0676,0.0656,0.0646,0.0637,0,0,0,0,0,0,-0.0246,-0.009,-0.0046,0.001,0.0129,0.0311,0.0343,0.0421,0.0488,0.048,0.0565,0.058,0.0582,0.061,0.0638,0.0635,0.0663,0.0658,0.0644,0.0635,0.0627,0.0628,0.0712,0,0,0,0,0,-0.028,-0.0241,-0.0074,-0.0036,0.0016,0.0168,0.0232,0.0317,0.041,0.0445,0.0515,0.055,0.0565,0.0589,0.0608,0.0619,0.0612,0.0609,0.0601,0.0595,0.0596,0.0564,0.0555,0.0653,0.0653,0.0654,0,0,-0.0319,-0.023,-0.0207,-0.0063,0.0033,0.0118,0.0209,0.0299,0.0361,0.0434,0.0501,0.0521,0.0553,0.0569,0.0571,0.0599,0.0555,0.0588,0.0583,0.0587,0.0557,0.0548,0.054,0.0649,0.065,0.0651,0,0,-0.0372,-0.0301,-0.0284,-0.0191,-0.0056,0.0058,0.0076,0.0244,0.0302,0.0366,0.041,0.043,0.0483,0.0521,0.0537,0.0487,0.0501,0.0471,0.0462,0.0431,0.0424,0.0417,0.0375,0.0365,0.0486,0.0485,0.0485,0,-0.0423,-0.0371,-0.0258,-0.0209,-0.015,0.0023,0.0061,0.0165,0.0314,0.0328,0.0369,0.0417,0.0466,0.0469,0.0472,0.0477,0.0446,0.0509,0.0425,0.0418,0.0413,0.0371,0.036,0.0484,0.0484,0.0484,0.0484,0,-0.0439,-0.0405,-0.0387,-0.0267,-0.0195,-0.0128,0.0024,0.009,0.0171,0.0267,0.0279,0.0349,0.038,0.0392,0.0438,0.0408,0.0392,0.0409,0.0461,0.0402,0.036,0.035,0.0481,0.0481,0.0482,0.0482,0,0,-0.0504,-0.0419,-0.0409,-0.0389,-0.0228,-0.0157,-0.009,0.0025,0.0049,0.0174,0.0174,0.0254,0.0295,0.0311,0.0354,0.0361,0.0316,0.0375,0.0375,0.0354,0.022,0.0309,0.0307,0.0311,0.031,0.0309,0.0202,0,-0.0541,-0.0509,-0.045,-0.0402,-0.0363,-0.0243,-0.0194,-0.0087,0.0002,0.0054,0.0131,0.0156,0.0265,0.0257,0.0288,0.0298,0.0288,0.0342,0.0262,0.0259,0.0365,0.0299,0.0393,0.0315,0.0192,0.019,0.0189,0,-0.0552,-0.0532,-0.053,-0.049,-0.0467,-0.0416,-0.0342,-0.0276,-0.0171,-0.0131,-0.0071,0.0001,0.0057,0.013,0.0161,0.0181,0.0197,0.0215,0.0211,0.0302,0.0331,0.0355,0.0301,0.0322,0.0173,0.0174,0.0176,0,-0.0624,-0.058,-0.0597,-0.0567,-0.0485,-0.0493,-0.0436,-0.0342,-0.0305,-0.0247,-0.0227,-0.0157,-0.0116,-0.0086,0.0058,0.0066,0.0069,0.0074,0.0159,0.0164,0.0236,0.0252,0.022,0.0051,0.0051,0.0052,0.0052,0,-0.0659,-0.0664,-0.0634,-0.0627,-0.0652,-0.0578,-0.0586,-0.053,-0.0467,-0.0383,-0.032,-0.0241,-0.0166,-0.0097,-0.0025,0.0072,0.0009,0.0142,0.0144,0.0227,0.0242,0.0261,0.0251,0.0048,0.0049,0.0049,0.005,0,-0.0724,-0.0701,-0.0717,-0.0689,-0.0684,-0.0697,-0.0653,-0.0617,-0.058,-0.0483,-0.0464,-0.0334,-0.0229,-0.015,-0.0096,-0.0013,0.0078,0.0081,0.0183,0.0201,0.0291,0.0276,0.0231,0.0292,0.0098,0.0099,0.0101,0,-0.0755,-0.0771,-0.0776,-0.0778,-0.0768,-0.077,-0.0731,-0.0677,-0.0595,-0.0461,-0.0381,-0.0304,-0.0095,-0.0019,0.0044,0.0101,0.0147,0.0217,0.027,0.0304,0.0286,0.0271,0.0324,0.0326,0.0329,0.0331,0.0333,0,-0.0826,-0.0835,-0.0857,-0.0836,-0.0813,-0.076,-0.0685,-0.0635,-0.0484,-0.0368,-0.0109,0.0036,0.0097,0.0257,0.0259,0.0302,0.0266,0.0271,0.027,0.0436,0.045,0.0509,0.0371,0.0356,0.0354,0.0352,0.0351,0.035,-0.0889,-0.0922,-0.0913,-0.0869,-0.0815,-0.0641,-0.0551,-0.0396,-0.02,0.0121,0.0195,0.0498,0.0535,0.0567,0.051,0.0458,0.0418,0.0528,0.0491,0.046,0.0579,0.0502,0.0529,0.0527,0.0526,0.0525,0.0525,0,-0.0923,-0.092,-0.0907,-0.08,-0.063,-0.0608,-0.0409,-0.0222,0.0117,0.0393,0.07,0.1031,0.1022,0.0895,0.0755,0.0711,0.0673,0.0711,0.0694,0.0729,0.0627,0.0705,0.0817,0.0817,0.0817,0.0817,0.0817,0.0817,-0.0939,-0.0921,-0.0861,-0.0577,-0.0465,-0.0177,-0.0014,0.0247,0.048,0.1006,0.1315,0.1513,0.1429,0.1035,0.0833,0.0821,0.0826,0.0829,0.0804,0.0717,0.0696,0.0677,0.0748,0.0868,0.0868,0.0971,0.0972,0.0972]}],[{"header":{"parameterUnit":"m.s-1","parameterCategory":2,"la1":30.2991,"la2":30.254,"lo1":-89.0895,"lo2":-89.0444,"dx":0.0017,"dy":0.0017,"nx":28,"ny":28,"refTime":"2022-12-12T03:00:00:Z","depth":"2","parameterNumber":2,"parameterNumberName":"U-component_of_CURRENTS"},"data":[0,0,0,0,0,0,0,0,0,0,0,0,0,0,0,0,0,0,0,0,0,0,0,0,0,0,0,0,0,0,0,0,0,0,0,0,0,0,0,0,0,0,0,0,0,0,0,0,0,0,0,0,0,0,0,0,0,0,-0.1646,-0.1646,0,-0.1697,-0.1698,-0.1699,-0.1724,-0.1724,-0.1724,-0.1724,-0.1869,-0.1873,-0.1877,0,0,0,0,0,0,0,0,0,0,0,0,0,-0.164,-0.1639,-0.1645,-0.1646,-0.1647,-0.1697,-0.1698,-0.1699,-0.1724,-0.1724,-0.1724,-0.1724,-0.1868,-0.1873,-0.1877,0,0,0,0,0,0,0,0,0,0,0,0,0,-0.1661,-0.1639,-0.1645,-0.1666,-0.1668,-0.1697,-0.1698,-0.1699,-0.1724,-0.1724,-0.1724,-0.1724,-0.1867,-0.1872,-0.1878,-0.1912,0,0,-0.1895,-0.1898,0,0,0,0,0,0,0,0,-0.166,-0.1661,-0.1662,-0.1665,-0.1667,-0.1705,-0.1749,-0.1775,-0.1724,-0.1702,-0.1724,-0.1724,-0.1823,-0.1833,-0.184,-0.1919,-0.1925,-0.1896,-0.1899,-0.1902,-0.1904,0,0,0,0,0,0,0,-0.1658,-0.166,-0.1665,-0.1663,-0.1666,-0.1697,-0.17,-0.1754,-0.1763,-0.1704,-0.1706,-0.1713,-0.1825,-0.1834,-0.1844,-0.1927,-0.1896,-0.1901,-0.1904,-0.1907,-0.2073,-0.2074,0,0,0,0,0,0,-0.1649,-0.1658,-0.1664,-0.1667,-0.1664,-0.1697,-0.17,-0.1692,-0.176,-0.177,-0.1713,-0.1714,-0.1824,-0.1837,-0.1849,-0.1891,-0.1902,-0.1907,-0.1911,-0.2072,-0.2073,-0.2075,0,0,0,0,0,0,-0.1648,-0.1648,-0.1662,-0.1665,-0.1669,-0.1696,-0.1688,-0.1693,-0.1712,-0.1766,-0.1778,-0.1728,-0.1825,-0.1841,-0.1904,-0.1897,-0.191,-0.1915,-0.2071,-0.2073,-0.2074,-0.1976,0,0,0,0,0,0,-0.1648,-0.1648,-0.1649,-0.1664,-0.1668,-0.1676,-0.1688,-0.1694,-0.1716,-0.1718,-0.1783,-0.1796,-0.1826,-0.1895,-0.1909,-0.1905,-0.192,-0.207,-0.2072,-0.2074,-0.1978,-0.1974,-0.1971,0,0,0,0,0,-0.1647,-0.1646,-0.1649,-0.165,-0.1666,-0.1677,-0.1682,-0.1702,-0.1717,-0.1721,-0.1769,-0.1794,-0.1917,-0.19,-0.1917,-0.1914,-0.2069,-0.2071,-0.2073,-0.198,-0.1975,-0.1971,0,0,0,0,0,0,-0.1652,-0.1649,-0.1652,-0.1652,-0.1663,-0.1681,-0.1692,-0.1708,-0.1748,-0.1758,-0.1809,-0.1825,-0.1873,-0.1921,-0.1901,-0.1972,-0.1997,-0.2003,-0.192,-0.1916,-0.1913,-0.1852,-0.1924,0,0,0,0,0,-0.165,-0.1641,-0.1651,-0.1651,-0.1656,-0.1677,-0.1689,-0.17,-0.1733,-0.175,-0.1793,-0.185,-0.1895,-0.1926,-0.1974,-0.202,-0.2004,-0.2033,-0.2029,-0.2025,-0.1991,-0.1957,-0.1944,-0.2082,-0.2082,-0.2082,0,0,-0.1652,-0.165,-0.1647,-0.1651,-0.1662,-0.1658,-0.1684,-0.1698,-0.1691,-0.1763,-0.1783,-0.1839,-0.1906,-0.1942,-0.1969,-0.1982,-0.1981,-0.2028,-0.2023,-0.199,-0.1957,-0.1943,-0.193,-0.2083,-0.2083,-0.2083,0,0,-0.1643,-0.1648,-0.1636,-0.1642,-0.1654,-0.1658,-0.1663,-0.1684,-0.169,-0.1719,-0.1766,-0.1805,-0.1891,-0.1912,-0.194,-0.1951,-0.196,-0.1996,-0.1926,-0.1894,-0.188,-0.1868,-0.1827,-0.1812,-0.1995,-0.1995,-0.1995,0,-0.1644,-0.1629,-0.1638,-0.163,-0.1635,-0.1654,-0.1648,-0.1649,-0.1688,-0.1697,-0.1715,-0.18,-0.1857,-0.1878,-0.1881,-0.1933,-0.1921,-0.193,-0.1881,-0.1869,-0.1858,-0.1819,-0.1803,-0.1991,-0.1991,-0.1992,-0.1992,0,-0.1618,-0.1617,-0.1613,-0.1597,-0.1605,-0.1605,-0.1606,-0.1615,-0.163,-0.1636,-0.166,-0.1712,-0.1761,-0.1791,-0.1838,-0.1811,-0.1828,-0.1871,-0.1873,-0.1837,-0.18,-0.1785,-0.1984,-0.1986,-0.1987,-0.1988,0,0,-0.1573,-0.159,-0.1585,-0.1589,-0.159,-0.1592,-0.1579,-0.1575,-0.1573,-0.1581,-0.1573,-0.1618,-0.1644,-0.1676,-0.1735,-0.1703,-0.1622,-0.1752,-0.1753,-0.1675,-0.1539,-0.1475,-0.1453,-0.1658,-0.1655,-0.1653,-0.1541,0,-0.1544,-0.1534,-0.1546,-0.1535,-0.1535,-0.1554,-0.1542,-0.1545,-0.155,-0.1547,-0.1552,-0.1575,-0.16,-0.1636,-0.1596,-0.1642,-0.158,-0.1647,-0.1617,-0.1615,-0.1532,-0.1432,-0.1343,-0.1229,-0.1527,-0.1524,-0.1522,0,-0.1498,-0.1504,-0.1496,-0.1521,-0.1521,-0.1514,-0.1517,-0.1512,-0.1505,-0.1515,-0.1502,-0.1523,-0.1494,-0.152,-0.1462,-0.1511,-0.1495,-0.1496,-0.1493,-0.1447,-0.1521,-0.1319,-0.1191,-0.1498,-0.15,-0.1502,-0.1503,0,-0.1454,-0.1463,-0.1461,-0.1465,-0.1488,-0.1491,-0.1499,-0.1503,-0.1503,-0.149,-0.1493,-0.1456,-0.1455,-0.1406,-0.14,-0.1437,-0.132,-0.1384,-0.1285,-0.1282,-0.1201,-0.1194,-0.1282,-0.1282,-0.1283,-0.1283,-0.1283,0,-0.1411,-0.1407,-0.1444,-0.1442,-0.1443,-0.147,-0.1466,-0.1476,-0.1481,-0.1464,-0.1471,-0.144,-0.1425,-0.1374,-0.1355,-0.1254,-0.1275,-0.1217,-0.1226,-0.1169,-0.1161,-0.1408,-0.1424,-0.1279,-0.128,-0.128,-0.1281,0,-0.1361,-0.1382,-0.1386,-0.1416,-0.1424,-0.1424,-0.1452,-0.1446,-0.1464,-0.1439,-0.1433,-0.1418,-0.1339,-0.13,-0.1233,-0.1196,-0.1122,-0.1081,-0.1004,-0.1004,-0.1115,-0.1128,-0.0939,-0.0936,-0.0932,-0.093,-0.0928,0,-0.1336,-0.1333,-0.1362,-0.1361,-0.1373,-0.1384,-0.1388,-0.1425,-0.1415,-0.1409,-0.1382,-0.1323,-0.125,-0.1117,-0.102,-0.091,-0.1003,-0.0791,-0.0824,-0.1039,-0.1069,-0.1088,-0.1104,-0.0688,-0.0684,-0.0681,-0.0678,0,-0.1287,-0.1297,-0.1303,-0.1298,-0.1302,-0.1309,-0.1315,-0.1309,-0.133,-0.1318,-0.1262,-0.1211,-0.1072,-0.0911,-0.0784,-0.0718,-0.0802,-0.0719,-0.0936,-0.0796,-0.0794,-0.0828,-0.0854,-0.0649,-0.0652,-0.0654,-0.0655,-0.0657,-0.1243,-0.1229,-0.1223,-0.1208,-0.1218,-0.1193,-0.1157,-0.1169,-0.1141,-0.1074,-0.1105,-0.0992,-0.0941,-0.0673,-0.0576,-0.0478,-0.0557,-0.0546,-0.0559,-0.0575,-0.0572,-0.0566,-0.0376,-0.0378,-0.0379,-0.038,-0.0381,0,-0.1154,-0.1135,-0.1126,-0.109,-0.1049,-0.1089,-0.1067,-0.1008,-0.0933,-0.0904,-0.0843,-0.0694,-0.0569,-0.0508,-0.0306,-0.0254,-0.0273,-0.024,-0.0294,-0.0322,-0.0346,-0.0337,-0.0076,-0.0075,-0.0075,-0.0074,0,0,-0.1099,-0.1038,-0.102,-0.0906,-0.0888,-0.0792,-0.0754,-0.0708,-0.0663,-0.0569,-0.0508,-0.0533,-0.0511,-0.033,-0.0254,-0.0139,-0.0231,-0.0102,-0.0344,-0.0437,-0.0461,-0.0512,-0.0525,0,0,0,0,0]},{"header":{"parameterUnit":"m.s-1","parameterCategory":2,"la1":30.2991,"la2":30.254,"lo1":-89.0895,"lo2":-89.0444,"dx":0.0017,"dy":0.0017,"nx":28,"ny":28,"refTime":"2022-12-12T03:00:00:Z","depth":"2","parameterNumber":3,"parameterNumberName":"V-component_of_CURRENTS"},"data":[0,0,0,0,0,0,0,0,0,0,0,0,0,0,0,0,0,0,0,0,0,0,0,0,0,0,0,0,0,0,0,0,0,0,0,0,0,0,0,0,0,0,0,0,0,0,0,0,0,0,0,0,0,0,0,0,0,0,-0.0388,-0.0387,0,-0.0377,-0.0377,-0.0377,-0.0358,-0.0358,-0.0357,-0.0357,-0.0305,-0.0304,-0.0303,0,0,0,0,0,0,0,0,0,0,0,0,0,-0.0401,-0.0401,-0.0388,-0.0387,-0.0387,-0.0377,-0.0377,-0.0377,-0.0359,-0.0358,-0.0357,-0.0357,-0.0305,-0.0304,-0.0303,0,0,0,0,0,0,0,0,0,0,0,0,0,-0.0395,-0.0401,-0.0388,-0.0375,-0.0374,-0.0377,-0.0377,-0.0377,-0.0359,-0.0358,-0.0357,-0.0356,-0.0305,-0.0304,-0.0303,-0.031,0,0,-0.0299,-0.0298,0,0,0,0,0,0,0,0,-0.0396,-0.0395,-0.0377,-0.0376,-0.0374,-0.0367,-0.0363,-0.0352,-0.0359,-0.0366,-0.0357,-0.0356,-0.0321,-0.0318,-0.0321,-0.0307,-0.0305,-0.0298,-0.0298,-0.0297,-0.0297,0,0,0,0,0,0,0,-0.0396,-0.0395,-0.0385,-0.0377,-0.0375,-0.0373,-0.0372,-0.0361,-0.0349,-0.0366,-0.0364,-0.036,-0.032,-0.0323,-0.032,-0.0304,-0.0298,-0.0297,-0.0296,-0.0296,-0.0249,-0.0249,0,0,0,0,0,0,-0.0394,-0.0396,-0.0386,-0.0385,-0.0381,-0.0374,-0.0372,-0.0371,-0.035,-0.0346,-0.0361,-0.0359,-0.0325,-0.0321,-0.0318,-0.0302,-0.0297,-0.0296,-0.0295,-0.025,-0.0249,-0.0249,0,0,0,0,0,0,-0.0395,-0.0394,-0.0386,-0.0388,-0.0387,-0.0374,-0.0374,-0.0372,-0.0368,-0.0346,-0.0341,-0.0359,-0.0325,-0.032,-0.0306,-0.0301,-0.0295,-0.0294,-0.025,-0.025,-0.0249,-0.0286,0,0,0,0,0,0,-0.0395,-0.0394,-0.0396,-0.0388,-0.0387,-0.0388,-0.0374,-0.0372,-0.0367,-0.0365,-0.0343,-0.0338,-0.0324,-0.0308,-0.0305,-0.0299,-0.0293,-0.0251,-0.025,-0.0249,-0.0285,-0.0286,-0.0288,0,0,0,0,0,-0.0396,-0.0401,-0.0396,-0.0395,-0.0389,-0.0388,-0.0387,-0.0376,-0.0367,-0.037,-0.0354,-0.0338,-0.03,-0.0308,-0.0303,-0.0297,-0.0251,-0.025,-0.0249,-0.0284,-0.0286,-0.0288,0,0,0,0,0,0,-0.0413,-0.0399,-0.0394,-0.0396,-0.0392,-0.0384,-0.0386,-0.0377,-0.0369,-0.0365,-0.0342,-0.0336,-0.0325,-0.0303,-0.0312,-0.0278,-0.0269,-0.0267,-0.0297,-0.0298,-0.03,-0.0293,-0.0292,0,0,0,0,0,-0.0417,-0.0415,-0.0404,-0.0408,-0.0405,-0.0396,-0.0394,-0.0387,-0.0377,-0.0372,-0.0359,-0.0336,-0.032,-0.0303,-0.0293,-0.0275,-0.0248,-0.0263,-0.0265,-0.0266,-0.0256,-0.0215,-0.0212,-0.0246,-0.0246,-0.0246,0,0,-0.0426,-0.0417,-0.0417,-0.0411,-0.0407,-0.0407,-0.0394,-0.0392,-0.0394,-0.0368,-0.0367,-0.035,-0.0319,-0.0306,-0.0296,-0.0284,-0.0244,-0.0265,-0.0267,-0.0255,-0.0213,-0.021,-0.0207,-0.0245,-0.0245,-0.0245,0,0,-0.0439,-0.0434,-0.0434,-0.0429,-0.042,-0.0417,-0.0416,-0.0409,-0.0408,-0.0411,-0.0384,-0.0359,-0.0348,-0.0312,-0.0294,-0.0292,-0.0263,-0.0287,-0.0277,-0.0238,-0.0235,-0.0232,-0.0205,-0.0199,-0.0275,-0.0275,-0.0276,0,-0.0451,-0.0447,-0.0437,-0.0433,-0.0427,-0.0421,-0.0421,-0.0424,-0.0415,-0.0404,-0.0416,-0.0373,-0.0349,-0.0303,-0.03,-0.0294,-0.0272,-0.0279,-0.024,-0.0237,-0.0233,-0.0206,-0.0199,-0.0277,-0.0277,-0.0277,-0.0277,0,-0.0461,-0.0456,-0.0458,-0.0449,-0.0444,-0.0446,-0.0441,-0.044,-0.0443,-0.0436,-0.0415,-0.0391,-0.035,-0.0342,-0.0323,-0.0272,-0.0267,-0.026,-0.024,-0.0232,-0.0204,-0.0196,-0.0279,-0.0279,-0.0278,-0.0278,0,0,-0.0493,-0.047,-0.047,-0.0465,-0.0451,-0.0452,-0.0448,-0.0439,-0.0428,-0.0432,-0.041,-0.0383,-0.0357,-0.0333,-0.0298,-0.026,-0.022,-0.0246,-0.0243,-0.0225,-0.0141,-0.0133,-0.0124,-0.0209,-0.0208,-0.0207,-0.0137,0,-0.0506,-0.0506,-0.0483,-0.0485,-0.0485,-0.0463,-0.046,-0.0446,-0.044,-0.0422,-0.039,-0.0368,-0.0357,-0.0332,-0.0293,-0.0239,-0.0199,-0.024,-0.0145,-0.0142,-0.0141,-0.0114,-0.0118,-0.0056,-0.013,-0.0128,-0.0127,0,-0.0523,-0.0519,-0.0522,-0.0497,-0.0494,-0.0493,-0.047,-0.0464,-0.0427,-0.0417,-0.0378,-0.0355,-0.0292,-0.0295,-0.02,-0.0228,-0.0181,-0.0149,-0.0145,-0.0115,-0.0119,-0.0072,-0.0039,-0.0114,-0.0115,-0.0116,-0.0117,0,-0.0561,-0.0544,-0.055,-0.0544,-0.0519,-0.0511,-0.0499,-0.0465,-0.0452,-0.0406,-0.0387,-0.0324,-0.0289,-0.0229,-0.0162,-0.0174,-0.0068,-0.0075,-0.0024,-0.0024,0.0005,0.0006,-0.0001,-0.0001,-0.0002,-0.0002,-0.0002,0,-0.0586,-0.0588,-0.0572,-0.0576,-0.0578,-0.0543,-0.0534,-0.0509,-0.0463,-0.0435,-0.0385,-0.0345,-0.0271,-0.0204,-0.015,-0.0062,-0.0054,-0.0011,0.0003,-0.0009,-0.0011,-0.0033,-0.0038,0.0001,0.0,-0.0,-0.0001,0,-0.0624,-0.0613,-0.0621,-0.0603,-0.0599,-0.0603,-0.0567,-0.0553,-0.0505,-0.0462,-0.0445,-0.0354,-0.026,-0.0188,-0.0078,-0.0042,0.0036,0.0067,0.004,0.0049,0.0049,0.0041,0.0133,0.0134,0.0135,0.0135,0.0136,0,-0.0639,-0.0651,-0.0655,-0.0661,-0.0654,-0.0649,-0.0641,-0.0591,-0.0564,-0.0464,-0.0441,-0.0337,-0.0255,-0.0103,-0.0009,0.0093,0.0082,0.0136,0.0118,0.0063,0.0067,0.0058,0.005,0.0137,0.0137,0.0138,0.0138,0,-0.067,-0.0679,-0.0688,-0.0705,-0.0707,-0.0702,-0.0678,-0.066,-0.0584,-0.0536,-0.0438,-0.0362,-0.0193,-0.0066,0.0064,0.0116,0.0116,0.0149,0.0123,0.0096,0.0071,0.0073,0.0064,0.0142,0.0142,0.0142,0.0141,0.0141,-0.0693,-0.0712,-0.0727,-0.074,-0.0746,-0.0737,-0.0717,-0.0674,-0.0626,-0.0506,-0.045,-0.0303,-0.0188,0.0024,0.0103,0.0183,0.0177,0.0185,0.0182,0.0179,0.016,0.0137,0.0217,0.0217,0.0217,0.0217,0.0217,0,-0.0709,-0.0729,-0.075,-0.0761,-0.0765,-0.0762,-0.0723,-0.0676,-0.0606,-0.0486,-0.0388,-0.0236,-0.01,0.0035,0.0172,0.0227,0.0213,0.0228,0.0199,0.0194,0.0191,0.0171,0.0232,0.0232,0.0232,0.0232,0,0,-0.0718,-0.0744,-0.0755,-0.0767,-0.0771,-0.0746,-0.0718,-0.0642,-0.0541,-0.04,-0.0277,-0.0184,-0.0044,0.0042,0.0113,0.019,0.0174,0.0192,0.0175,0.0127,0.0123,0.0162,0.0127,0,0,0,0,0]}],[{"header":{"parameterUnit":"m.s-1","parameterCategory":2,"la1":30.2991,"la2":30.254,"lo1":-89.0895,"lo2":-89.0444,"dx":0.0017,"dy":0.0017,"nx":28,"ny":28,"refTime":"2022-12-12T03:00:00:Z","depth":"4","parameterNumber":2,"parameterNumberName":"U-component_of_CURRENTS"},"data":[0,0,0,0,0,0,0,0,0,0,0,0,0,0,0,0,0,0,0,0,0,0,0,0,0,0,0,0,0,0,0,0,0,0,0,0,0,0,0,0,0,0,0,0,0,0,0,0,0,0,0,0,0,0,0,0,0,0,-0.1141,-0.1142,0,-0.1149,-0.115,-0.115,-0.116,-0.116,-0.116,-0.1161,-0.1175,-0.1175,-0.1175,0,0,0,0,0,0,0,0,0,0,0,0,0,-0.1141,-0.1141,-0.1141,-0.1142,-0.1142,-0.1149,-0.115,-0.115,-0.116,-0.116,-0.116,-0.1161,-0.1175,-0.1175,-0.1175,0,0,0,0,0,0,0,0,0,0,0,0,0,-0.1144,-0.1141,-0.1141,-0.1148,-0.1149,-0.1149,-0.115,-0.115,-0.116,-0.116,-0.116,-0.1161,-0.1175,-0.1175,-0.1175,-0.1169,0,0,-0.1176,-0.1176,0,0,0,0,0,0,0,0,-0.1143,-0.1143,-0.1147,-0.1148,-0.1149,-0.1155,-0.1155,-0.1157,-0.116,-0.1155,-0.1161,-0.1161,-0.1169,-0.117,-0.1169,-0.1169,-0.117,-0.1176,-0.1176,-0.1176,-0.1176,0,0,0,0,0,0,0,-0.1143,-0.1143,-0.1144,-0.1147,-0.1148,-0.1154,-0.1154,-0.1155,-0.1159,-0.1155,-0.1156,-0.1158,-0.1169,-0.1169,-0.1169,-0.117,-0.1176,-0.1176,-0.1176,-0.1176,-0.1197,-0.1198,0,0,0,0,0,0,-0.1143,-0.1143,-0.1143,-0.1144,-0.1148,-0.1153,-0.1154,-0.1152,-0.1159,-0.1161,-0.1158,-0.1159,-0.1168,-0.1169,-0.117,-0.1195,-0.1176,-0.1176,-0.1176,-0.1197,-0.1198,-0.1198,0,0,0,0,0,0,-0.1143,-0.1143,-0.1143,-0.1145,-0.1145,-0.1153,-0.115,-0.1152,-0.1167,-0.1161,-0.1163,-0.1174,-0.1168,-0.117,-0.1189,-0.1195,-0.1176,-0.1176,-0.1197,-0.1197,-0.1198,-0.1226,0,0,0,0,0,0,-0.1143,-0.1143,-0.1154,-0.1145,-0.1145,-0.1149,-0.115,-0.1152,-0.1168,-0.1169,-0.1175,-0.1176,-0.1169,-0.1189,-0.1189,-0.1195,-0.1177,-0.1196,-0.1197,-0.1198,-0.1224,-0.1227,-0.123,0,0,0,0,0,-0.1143,-0.115,-0.1154,-0.1155,-0.1156,-0.1149,-0.115,-0.1156,-0.1168,-0.1173,-0.1186,-0.1177,-0.1194,-0.119,-0.119,-0.1196,-0.1196,-0.1197,-0.1198,-0.1223,-0.1227,-0.123,0,0,0,0,0,0,-0.1159,-0.1151,-0.1156,-0.1162,-0.116,-0.1151,-0.1164,-0.1167,-0.118,-0.1191,-0.1188,-0.1189,-0.1205,-0.1199,-0.1195,-0.1204,-0.1191,-0.1192,-0.121,-0.1213,-0.1216,-0.1197,-0.1177,0,0,0,0,0,-0.1167,-0.117,-0.1162,-0.117,-0.1172,-0.1172,-0.1177,-0.1178,-0.1183,-0.119,-0.1196,-0.1203,-0.1206,-0.1211,-0.1211,-0.1221,-0.1203,-0.1223,-0.1226,-0.1228,-0.1213,-0.1216,-0.1218,-0.1201,-0.1201,-0.1201,0,0,-0.1178,-0.1174,-0.1178,-0.1175,-0.1178,-0.1177,-0.1177,-0.1184,-0.1187,-0.119,-0.1209,-0.1215,-0.1212,-0.1221,-0.1227,-0.122,-0.1221,-0.1229,-0.1232,-0.1215,-0.1217,-0.1219,-0.122,-0.1202,-0.1202,-0.1202,0,0,-0.1187,-0.1197,-0.1198,-0.1197,-0.12,-0.1196,-0.1202,-0.1201,-0.1208,-0.1222,-0.1225,-0.1232,-0.1245,-0.1236,-0.1234,-0.1251,-0.1236,-0.1261,-0.126,-0.1264,-0.1265,-0.1266,-0.1232,-0.1229,-0.1262,-0.1262,-0.1262,0,-0.1202,-0.1199,-0.12,-0.1199,-0.1204,-0.1206,-0.1208,-0.121,-0.1217,-0.1226,-0.1232,-0.1248,-0.1243,-0.1246,-0.1249,-0.1255,-0.125,-0.1249,-0.1267,-0.1268,-0.1268,-0.1233,-0.123,-0.1264,-0.1263,-0.1263,-0.1263,0,-0.1197,-0.1209,-0.1212,-0.121,-0.1217,-0.1219,-0.1219,-0.1231,-0.1244,-0.1244,-0.126,-0.1257,-0.1262,-0.1265,-0.126,-0.1263,-0.1256,-0.1272,-0.1258,-0.1271,-0.1233,-0.123,-0.1266,-0.1265,-0.1265,-0.1264,0,0,-0.1176,-0.1204,-0.1203,-0.1215,-0.1223,-0.1222,-0.1238,-0.1242,-0.1254,-0.1263,-0.1273,-0.1271,-0.1274,-0.127,-0.127,-0.1266,-0.1255,-0.1272,-0.1272,-0.1236,-0.1246,-0.1149,-0.1135,-0.1293,-0.1293,-0.1293,-0.1214,0,-0.1168,-0.1178,-0.1193,-0.1207,-0.1212,-0.1232,-0.1244,-0.1255,-0.1266,-0.1276,-0.1273,-0.128,-0.1275,-0.1282,-0.1279,-0.1265,-0.125,-0.1273,-0.124,-0.1237,-0.1149,-0.1129,-0.1292,-0.1211,-0.121,-0.121,-0.1209,0,-0.1135,-0.1152,-0.117,-0.1209,-0.1215,-0.1228,-0.1253,-0.1264,-0.128,-0.1292,-0.1301,-0.13,-0.1284,-0.1287,-0.1255,-0.128,-0.1257,-0.1242,-0.1239,-0.1132,-0.1133,-0.1198,-0.1202,-0.1203,-0.1203,-0.1204,-0.1204,0,-0.1091,-0.1127,-0.1146,-0.1157,-0.12,-0.1222,-0.1246,-0.1271,-0.1281,-0.1298,-0.1304,-0.1302,-0.129,-0.1278,-0.1233,-0.1257,-0.1192,-0.1222,-0.1105,-0.1098,-0.1198,-0.1199,-0.1194,-0.1194,-0.1194,-0.1194,-0.1195,0,-0.105,-0.1066,-0.1134,-0.114,-0.1165,-0.1208,-0.1231,-0.1256,-0.1284,-0.1276,-0.1307,-0.1285,-0.1293,-0.1258,-0.123,-0.1134,-0.1187,-0.1079,-0.1069,-0.121,-0.1212,-0.1195,-0.1196,-0.1191,-0.1192,-0.1193,-0.1193,0,-0.0988,-0.1033,-0.1059,-0.1123,-0.1144,-0.116,-0.1219,-0.1226,-0.1268,-0.1257,-0.126,-0.1269,-0.1211,-0.1191,-0.1148,-0.1104,-0.1041,-0.0998,-0.1112,-0.1114,-0.0944,-0.0947,-0.0854,-0.085,-0.0847,-0.0844,-0.0841,0,-0.0958,-0.0965,-0.1035,-0.1049,-0.1081,-0.112,-0.1139,-0.1202,-0.1201,-0.1221,-0.1195,-0.1168,-0.1151,-0.1,-0.1008,-0.0927,-0.0923,-0.0886,-0.0938,-0.0908,-0.0908,-0.0917,-0.0926,-0.0836,-0.0835,-0.0834,-0.0833,0,-0.0897,-0.0929,-0.0951,-0.0975,-0.1004,-0.1029,-0.106,-0.1054,-0.1099,-0.1155,-0.1084,-0.1039,-0.0966,-0.0918,-0.0856,-0.0813,-0.0911,-0.085,-0.0858,-0.0906,-0.0885,-0.089,-0.0902,-0.0821,-0.0823,-0.0824,-0.0825,0,-0.0851,-0.0845,-0.087,-0.088,-0.0915,-0.0906,-0.0948,-0.0937,-0.0949,-0.0983,-0.0951,-0.0926,-0.0944,-0.0855,-0.08,-0.0741,-0.0736,-0.0724,-0.0739,-0.0752,-0.0755,-0.0715,-0.0566,0,0,0,0,0,-0.0794,-0.0763,-0.0768,-0.0766,-0.0799,-0.081,-0.0868,-0.0911,-0.0961,-0.0879,-0.0914,-0.0838,-0.0755,-0.0755,-0.0667,-0.0744,-0.0737,-0.064,-0.0732,-0.0754,-0.0768,-0.0781,0,0,0,0,0,0,-0.075,-0.0743,-0.0727,-0.0662,-0.064,-0.0656,-0.069,-0.0737,-0.0703,-0.0763,-0.0722,-0.0769,-0.0702,-0.0767,-0.0637,-0.0633,-0.0671,-0.0639,-0.0636,-0.0746,-0.0758,-0.077,-0.0788,0,0,0,0,0]},{"header":{"parameterUnit":"m.s-1","parameterCategory":2,"la1":30.2991,"la2":30.254,"lo1":-89.0895,"lo2":-89.0444,"dx":0.0017,"dy":0.0017,"nx":28,"ny":28,"refTime":"2022-12-12T03:00:00:Z","depth":"4","parameterNumber":3,"parameterNumberName":"V-component_of_CURRENTS"},"data":[0,0,0,0,0,0,0,0,0,0,0,0,0,0,0,0,0,0,0,0,0,0,0,0,0,0,0,0,0,0,0,0,0,0,0,0,0,0,0,0,0,0,0,0,0,0,0,0,0,0,0,0,0,0,0,0,0,0,-0.0313,-0.0313,0,-0.0331,-0.0331,-0.0331,-0.0343,-0.0343,-0.0343,-0.0343,-0.0372,-0.0372,-0.0373,0,0,0,0,0,0,0,0,0,0,0,0,0,-0.0295,-0.0295,-0.0313,-0.0313,-0.0313,-0.0331,-0.0331,-0.0332,-0.0343,-0.0343,-0.0343,-0.0343,-0.0371,-0.0372,-0.0373,0,0,0,0,0,0,0,0,0,0,0,0,0,-0.0308,-0.0295,-0.0313,-0.032,-0.0321,-0.0331,-0.0331,-0.0332,-0.0343,-0.0343,-0.0343,-0.0343,-0.0371,-0.0372,-0.0374,-0.0383,0,0,-0.0377,-0.0378,0,0,0,0,0,0,0,0,-0.0307,-0.0309,-0.0319,-0.032,-0.032,-0.0333,-0.0335,-0.0349,-0.0343,-0.0336,-0.0343,-0.0343,-0.0359,-0.0361,-0.0367,-0.0384,-0.0385,-0.0377,-0.0378,-0.0379,-0.0379,0,0,0,0,0,0,0,-0.0306,-0.0308,-0.0322,-0.0319,-0.032,-0.0324,-0.0326,-0.0338,-0.0349,-0.0337,-0.0337,-0.0337,-0.036,-0.0365,-0.0367,-0.0386,-0.0377,-0.0378,-0.0379,-0.038,-0.0412,-0.0412,0,0,0,0,0,0,-0.0301,-0.0307,-0.0321,-0.0322,-0.0312,-0.0324,-0.0327,-0.0331,-0.0349,-0.0351,-0.0337,-0.0337,-0.0363,-0.0366,-0.0368,-0.0389,-0.0379,-0.038,-0.038,-0.0412,-0.0412,-0.0412,0,0,0,0,0,0,-0.0301,-0.0302,-0.032,-0.0314,-0.0316,-0.0325,-0.0329,-0.0331,-0.0342,-0.0349,-0.0351,-0.0346,-0.0363,-0.0367,-0.0383,-0.0389,-0.038,-0.0381,-0.0412,-0.0412,-0.0412,-0.0423,0,0,0,0,0,0,-0.03,-0.0302,-0.0308,-0.0313,-0.0316,-0.0334,-0.0329,-0.0331,-0.0341,-0.0341,-0.0357,-0.036,-0.0364,-0.0381,-0.0384,-0.0391,-0.0382,-0.0412,-0.0412,-0.0412,-0.0423,-0.0424,-0.0425,0,0,0,0,0,-0.03,-0.0309,-0.0308,-0.031,-0.0322,-0.0334,-0.0337,-0.0343,-0.0341,-0.0351,-0.0357,-0.0359,-0.0384,-0.0382,-0.0386,-0.0393,-0.0411,-0.0412,-0.0412,-0.0422,-0.0424,-0.0425,0,0,0,0,0,0,-0.0309,-0.0311,-0.031,-0.0321,-0.0329,-0.0336,-0.0345,-0.0346,-0.036,-0.0361,-0.0365,-0.0369,-0.0386,-0.0386,-0.0384,-0.0402,-0.0397,-0.0398,-0.0403,-0.0405,-0.0406,-0.0387,-0.0383,0,0,0,0,0,-0.0312,-0.0317,-0.0321,-0.0331,-0.0334,-0.034,-0.0346,-0.035,-0.0359,-0.0365,-0.0373,-0.038,-0.039,-0.0394,-0.0406,-0.0416,-0.0384,-0.0421,-0.0422,-0.0423,-0.041,-0.0358,-0.0352,-0.0413,-0.0413,-0.0413,0,0,-0.0319,-0.032,-0.0324,-0.0333,-0.0339,-0.0348,-0.0345,-0.0357,-0.0366,-0.0366,-0.0384,-0.039,-0.0395,-0.0408,-0.0415,-0.0409,-0.0392,-0.0424,-0.0424,-0.041,-0.0357,-0.0351,-0.0345,-0.0413,-0.0413,-0.0413,0,0,-0.0332,-0.0337,-0.0344,-0.0348,-0.0356,-0.036,-0.0364,-0.0374,-0.0381,-0.04,-0.0397,-0.0399,-0.0424,-0.0417,-0.0419,-0.043,-0.0403,-0.0439,-0.0426,-0.0377,-0.037,-0.0365,-0.0325,-0.0315,-0.0435,-0.0435,-0.0435,0,-0.0342,-0.0347,-0.035,-0.0355,-0.0357,-0.0366,-0.0372,-0.0384,-0.0399,-0.0395,-0.041,-0.0413,-0.0425,-0.0413,-0.0421,-0.0431,-0.0398,-0.0424,-0.0376,-0.037,-0.0363,-0.0324,-0.0313,-0.0436,-0.0435,-0.0435,-0.0435,0,-0.0356,-0.0361,-0.0367,-0.0373,-0.0378,-0.0389,-0.0396,-0.0405,-0.0416,-0.0418,-0.0418,-0.0425,-0.0415,-0.0428,-0.0433,-0.0397,-0.0387,-0.0386,-0.037,-0.0358,-0.0317,-0.0306,-0.0436,-0.0436,-0.0436,-0.0436,0,0,-0.0376,-0.0376,-0.0379,-0.0378,-0.0386,-0.0393,-0.0403,-0.0406,-0.04,-0.0418,-0.04,-0.042,-0.0405,-0.0404,-0.0402,-0.0366,-0.0311,-0.0358,-0.0355,-0.0313,-0.0198,-0.0221,-0.021,-0.0296,-0.0294,-0.0292,-0.019,0,-0.0386,-0.0398,-0.0391,-0.0402,-0.0407,-0.0404,-0.0408,-0.041,-0.0413,-0.0401,-0.0394,-0.0388,-0.0402,-0.0393,-0.0358,-0.0327,-0.0279,-0.0338,-0.022,-0.0216,-0.0233,-0.0198,-0.0286,-0.0181,-0.0178,-0.0176,-0.0175,0,-0.0399,-0.0403,-0.0415,-0.0405,-0.0406,-0.0414,-0.0405,-0.0409,-0.039,-0.0386,-0.0361,-0.0352,-0.0314,-0.0325,-0.0239,-0.0274,-0.0229,-0.0202,-0.0197,-0.0202,-0.0218,-0.0194,-0.0154,-0.0156,-0.0157,-0.0159,-0.016,0,-0.0411,-0.0415,-0.0424,-0.0425,-0.0422,-0.0422,-0.0422,-0.0407,-0.04,-0.0368,-0.035,-0.0304,-0.028,-0.0217,-0.018,-0.0195,-0.0079,-0.0091,-0.0061,-0.0062,-0.0068,-0.0075,0.0,0.0,-0.0,-0.0001,-0.0001,0,-0.0418,-0.0424,-0.0435,-0.0441,-0.0446,-0.0436,-0.0431,-0.0419,-0.039,-0.0372,-0.0339,-0.0307,-0.0249,-0.0189,-0.0148,-0.0075,-0.0047,-0.0041,-0.0029,-0.0079,-0.0088,-0.006,-0.0069,0.0003,0.0002,0.0002,0.0001,0,-0.0423,-0.0432,-0.0444,-0.0451,-0.0454,-0.046,-0.0448,-0.0439,-0.0407,-0.0376,-0.0362,-0.0295,-0.0218,-0.016,-0.0058,-0.0038,0.0032,0.0057,-0.0,0.0004,0.0012,0.0002,0.0115,0.0115,0.0115,0.0115,0.0115,0,-0.0421,-0.0433,-0.0459,-0.0473,-0.0479,-0.0485,-0.0487,-0.046,-0.0444,-0.0372,-0.0354,-0.0268,-0.0223,-0.009,-0.0034,0.0064,0.0066,0.0104,0.0061,0.0028,0.0029,0.0018,0.0007,0.0116,0.0116,0.0116,0.0116,0,-0.0418,-0.044,-0.0454,-0.0489,-0.0505,-0.0511,-0.0508,-0.049,-0.0448,-0.0418,-0.0335,-0.0262,-0.017,-0.0085,-0.001,0.0054,0.0076,0.0107,0.0106,0.0066,0.0031,0.0028,0.0018,0.0117,0.0116,0.0116,0.0116,0,-0.0422,-0.0438,-0.0472,-0.0494,-0.0521,-0.0528,-0.0522,-0.049,-0.0462,-0.038,-0.0353,-0.025,-0.0188,-0.0088,-0.0021,0.0038,0.0049,0.0053,0.0056,0.0056,-0.0009,-0.0066,0.002,0,0,0,0,0,-0.0421,-0.0444,-0.047,-0.0499,-0.0526,-0.0538,-0.0531,-0.0516,-0.0471,-0.0417,-0.0381,-0.0295,-0.0175,-0.0115,-0.0056,-0.0028,0.0049,0.004,0.0052,0.012,0.012,0.0049,0,0,0,0,0,0,-0.0425,-0.0457,-0.047,-0.0498,-0.0515,-0.0538,-0.0534,-0.0505,-0.0466,-0.0413,-0.0345,-0.0296,-0.0178,-0.0209,-0.0059,-0.0038,-0.0027,0.0103,0.0103,0.0121,0.012,0.0119,0.0047,0,0,0,0,0]}]]